• In Latvia
  • List of Countries
  • For 7 days
  • Water Temperature
  • Satellite Maps
  • Weather Map
  • Weather Widgets
  • user-avatar
    Login

    Hourly Weather Calmatui

    Today, 16 October, Tuesday

    Time Temperature Precipitation Wind Pressure Humidity
    00:00 +14°C° 0 mm 1 mps 765 mmHg 61%
    01:00 +14°C° 0 mm 1 mps 765 mmHg 63%
    02:00 +13°C° 0 mm 1 mps 765 mmHg 67%
    03:00 +13°C° 0 mm 1 mps 765 mmHg 68%
    04:00 +13°C° 0 mm 1 mps 765 mmHg 70%
    05:00 +12°C° 0 mm 1 mps 765 mmHg 72%
    06:00 +13°C° 0 mm 1 mps 765 mmHg 69%
    07:00 +14°C° 0 mm 1 mps 765 mmHg 65%
    08:00 +15°C° 0 mm 1 mps 765 mmHg 62%
    09:00 +17°C° 0 mm 2 mps 765 mmHg 55%
    10:00 +19°C° 0 mm 2 mps 765 mmHg 48%
    11:00 +21°C° 0 mm 2 mps 764 mmHg 41%
    12:00 +22°C° 0 mm 3 mps 764 mmHg 38%
    13:00 +24°C° 0 mm 3 mps 764 mmHg 35%
    14:00 +26°C° 0 mm 3 mps 764 mmHg 32%
    15:00 +24°C° 0 mm 2 mps 764 mmHg 35%
    16:00 +23°C° 0 mm 2 mps 763 mmHg 38%
    17:00 +21°C° 0 mm 2 mps 763 mmHg 42%
    18:00 +21°C° 0 mm 1 mps 763 mmHg 45%
    19:00 +20°C° 0 mm 1 mps 763 mmHg 48%
    20:00 +19°C° 0 mm 1 mps 764 mmHg 51%
    21:00 +19°C° 0 mm 1 mps 764 mmHg 52%
    22:00 +18°C° 0 mm 1 mps 764 mmHg 53%
    23:00 +18°C° 0 mm 1 mps 764 mmHg 55%

    Tomorrow, 17 October, Wednesday

    Time Temperature Precipitation Wind Pressure Humidity
    00:00 +16°C° 0 mm 1 mps 764 mmHg 57%
    01:00 +16°C° 0 mm 1 mps 764 mmHg 58%
    02:00 +16°C° 0 mm 1 mps 764 mmHg 60%
    03:00 +15°C° 0 mm 1 mps 764 mmHg 63%
    04:00 +15°C° 0 mm 1 mps 763 mmHg 65%
    05:00 +14°C° 0 mm 1 mps 763 mmHg 68%
    06:00 +15°C° 0 mm 1 mps 763 mmHg 66%
    07:00 +16°C° 0 mm 2 mps 764 mmHg 65%
    08:00 +16°C° 0 mm 2 mps 764 mmHg 63%
    09:00 +18°C° 0 mm 2 mps 764 mmHg 57%
    10:00 +20°C° 0 mm 3 mps 763 mmHg 52%
    11:00 +22°C° 0 mm 3 mps 763 mmHg 46%
    12:00 +24°C° 0 mm 3 mps 763 mmHg 43%
    13:00 +25°C° 0 mm 3 mps 763 mmHg 40%
    14:00 +26°C° 0 mm 3 mps 762 mmHg 36%
    15:00 +25°C° 0 mm 3 mps 762 mmHg 40%
    16:00 +22°C° 0 mm 3 mps 762 mmHg 43%
    17:00 +21°C° 0 mm 2 mps 762 mmHg 46%
    18:00 +20°C° 0 mm 2 mps 762 mmHg 50%
    19:00 +20°C° 0 mm 1 mps 762 mmHg 53%
    20:00 +19°C° 0 mm 1 mps 762 mmHg 57%
    21:00 +18°C° 0 mm 1 mps 762 mmHg 59%
    22:00 +18°C° 0 mm 1 mps 762 mmHg 61%
    23:00 +16°C° 0 mm 1 mps 762 mmHg 62%

    Day after tomorrow, 18 October, Thursday

    Time Temperature Precipitation Wind Pressure Humidity
    00:00 +16°C° 0 mm 1 mps 762 mmHg 64%
    01:00 +15°C° 0 mm 1 mps 762 mmHg 65%
    02:00 +15°C° 0 mm 1 mps 762 mmHg 66%
    03:00 +15°C° 0 mm 1 mps 762 mmHg 67%
    04:00 +14°C° 0 mm 1 mps 762 mmHg 68%
    05:00 +14°C° 0 mm 1 mps 762 mmHg 69%
    06:00 +14°C° 0 mm 1 mps 762 mmHg 67%
    07:00 +15°C° 0 mm 2 mps 762 mmHg 64%
    08:00 +16°C° 0 mm 2 mps 762 mmHg 61%
    09:00 +17°C° 0 mm 2 mps 762 mmHg 55%
    10:00 +19°C° 0 mm 2 mps 761 mmHg 49%
    11:00 +21°C° 0 mm 3 mps 761 mmHg 43%
    12:00 +22°C° 0 mm 3 mps 761 mmHg 40%
    13:00 +24°C° 0 mm 3 mps 760 mmHg 37%
    14:00 +25°C° 0 mm 3 mps 760 mmHg 34%
    15:00 +24°C° 0 mm 2 mps 760 mmHg 37%
    16:00 +23°C° 0 mm 2 mps 760 mmHg 40%
    17:00 +21°C° 0 mm 2 mps 760 mmHg 42%
    18:00 +20°C° 0 mm 1 mps 760 mmHg 46%
    19:00 +19°C° 0 mm 1 mps 760 mmHg 49%
    20:00 +18°C° 0 mm 1 mps 760 mmHg 52%
    21:00 +18°C° 0 mm 1 mps 760 mmHg 54%
    22:00 +16°C° 0 mm 1 mps 760 mmHg 56%
    23:00 +15°C° 0 mm 0 mps 760 mmHg 58%

    19 October, Friday

    Time Temperature Precipitation Wind Pressure Humidity
    00:00 +14°C° 0 mm 0 mps 760 mmHg 59%
    01:00 +14°C° 0 mm 0 mps 760 mmHg 60%
    02:00 +15°C° 0 mm 1 mps 760 mmHg 61%
    03:00 +15°C° 0 mm 1 mps 760 mmHg 61%
    04:00 +14°C° 0 mm 1 mps 759 mmHg 61%
    05:00 +14°C° 0 mm 1 mps 759 mmHg 61%
    06:00 +15°C° 0 mm 1 mps 759 mmHg 59%
    07:00 +16°C° 0 mm 1 mps 759 mmHg 57%
    08:00 +16°C° 0 mm 1 mps 760 mmHg 55%
    09:00 +19°C° 0 mm 1 mps 759 mmHg 50%
    10:00 +19°C° 0 mm 2 mps 759 mmHg 45%
    11:00 +21°C° 0 mm 2 mps 759 mmHg 40%
    12:00 +23°C° 0 mm 2 mps 759 mmHg 38%
    13:00 +23°C° 0 mm 2 mps 759 mmHg 36%
    14:00 +24°C° 0 mm 2 mps 758 mmHg 34%
    15:00 +23°C° 0 mm 2 mps 758 mmHg 36%
    16:00 +21°C° 0 mm 2 mps 758 mmHg 39%
    17:00 +20°C° 0 mm 2 mps 758 mmHg 42%
    18:00 +19°C° 0 mm 2 mps 758 mmHg 44%
    19:00 +18°C° 0 mm 2 mps 759 mmHg 46%
    20:00 +17°C° 0 mm 2 mps 759 mmHg 48%
    21:00 +17°C° 0 mm 2 mps 759 mmHg 51%
    22:00 +17°C° 0 mm 2 mps 759 mmHg 54%
    23:00 +16°C° 0 mm 2 mps 759 mmHg 56%

    20 October, Saturday

    Time Temperature Precipitation Wind Pressure Humidity
    00:00 +14°C° 0 mm 3 mps 759 mmHg 61%
    01:00 +14°C° 0 mm 3 mps 759 mmHg 65%
    02:00 +13°C° 0 mm 3 mps 759 mmHg 69%
    03:00 +13°C° 0 mm 3 mps 759 mmHg 73%
    04:00 +13°C° 0 mm 3 mps 759 mmHg 76%
    05:00 +13°C° 0 mm 3 mps 759 mmHg 80%
    06:00 +13°C° 0 mm 3 mps 759 mmHg 78%
    07:00 +14°C° 0 mm 4 mps 759 mmHg 77%
    08:00 +14°C° 0 mm 4 mps 760 mmHg 75%
    09:00 +15°C° 0 mm 4 mps 759 mmHg 68%
    10:00 +17°C° 0 mm 5 mps 759 mmHg 62%
    11:00 +19°C° 0 mm 5 mps 759 mmHg 55%
    12:00 +20°C° 0 mm 5 mps 759 mmHg 54%
    13:00 +20°C° 0 mm 5 mps 759 mmHg 52%
    14:00 +21°C° 0 mm 5 mps 759 mmHg 50%
    15:00 +20°C° 0 mm 5 mps 759 mmHg 53%
    16:00 +19°C° 0 mm 4 mps 759 mmHg 55%
    17:00 +18°C° 0 mm 3 mps 759 mmHg 58%
    18:00 +17°C° 0 mm 3 mps 759 mmHg 62%
    19:00 +16°C° 0 mm 3 mps 759 mmHg 66%
    20:00 +14°C° 0 mm 3 mps 759 mmHg 70%
    21:00 +13°C° 0 mm 3 mps 759 mmHg 72%
    22:00 +13°C° 0 mm 3 mps 759 mmHg 74%
    23:00 +13°C° 0 mm 2 mps 759 mmHg 76%

    21 October, Sunday

    Time Temperature Precipitation Wind Pressure Humidity
    00:00 +12°C° 0 mm 3 mps 759 mmHg 79%
    01:00 +12°C° 0 mm 3 mps 759 mmHg 82%
    02:00 +11°C° 0 mm 3 mps 759 mmHg 84%
    03:00 +11°C° 0 mm 3 mps 759 mmHg 86%
    04:00 +11°C° 0 mm 3 mps 759 mmHg 88%
    05:00 +10°C° 0 mm 3 mps 759 mmHg 90%
    06:00 +11°C° 0 mm 3 mps 759 mmHg 87%
    07:00 +11°C° 0 mm 4 mps 759 mmHg 85%
    08:00 +12°C° 0 mm 4 mps 759 mmHg 82%
    09:00 +12°C° 0 mm 4 mps 759 mmHg 77%
    10:00 +13°C° 0 mm 5 mps 759 mmHg 71%
    11:00 +14°C° 0 mm 5 mps 759 mmHg 65%
    12:00 +15°C° 0 mm 5 mps 759 mmHg 62%
    13:00 +15°C° 0 mm 5 mps 759 mmHg 59%
    14:00 +16°C° 0 mm 5 mps 758 mmHg 55%
    15:00 +15°C° 0 mm 4 mps 758 mmHg 57%
    16:00 +14°C° 0 mm 4 mps 758 mmHg 58%
    17:00 +13°C° 0 mm 3 mps 758 mmHg 60%
    18:00 +13°C° 0.1 mm 3 mps 759 mmHg 62%
    19:00 +12°C° 0.1 mm 3 mps 759 mmHg 63%
    20:00 +12°C° 0.1 mm 4 mps 759 mmHg 65%
    21:00 +12°C° 0.3 mm 4 mps 759 mmHg 68%
    22:00 +11°C° 0.3 mm 4 mps 759 mmHg 71%
    23:00 +11°C° 0.3 mm 4 mps 759 mmHg 74%
    Show more